Date,TemperatureHighF,TemperatureAvgF,TemperatureLowF,DewpointHighF,DewpointAvgF,DewpointLowF,HumidityHigh,HumidityAvg,HumidityLow,PressureMaxIn,PressureMinIn,WindSpeedMaxMPH,WindSpeedAvgMPH,GustSpeedMaxMPH,PrecipitationSumIn
2013-1-1,20,8,-2,14,4,-7,91,83,75,30.24,30.07,12,2,13,0.00
2013-1-2,22,9,-4,13,2,-8,88,76,65,30.25,30.18,8,2,10,0.00
2013-1-3,20,5,-7,9,-2,-11,88,75,55,30.32,30.25,6,1,8,0.00
2013-1-4,27,11,-2,9,1,-6,85,67,40,30.27,30.18,9,2,11,0.00
2013-1-5,36,18,6,12,4,-2,75,57,30,30.35,30.23,8,2,11,0.00
2013-1-6,38,22,8,14,7,0,73,55,33,30.31,30.14,7,1,10,0.00
2013-1-7,35,22,13,12,6,2,65,51,34,30.14,30.09,9,3,10,0.00
2013-1-8,36,21,8,16,7,-1,81,56,29,30.36,30.09,10,2,13,0.01
2013-1-9,43,26,10,19,13,6,90,61,32,30.38,30.16,9,2,9,0.02
2013-1-10,46,31,14,23,12,4,73,50,19,30.16,29.72,19,6,29,0.02
2013-1-11,31,16,5,22,8,-3,87,70,50,29.92,29.60,26,7,38,0.00
2013-1-12,19,6,-1,4,-4,-10,82,65,43,29.94,29.87,11,4,13,0.02
2013-1-13,11,4,-3,6,-3,-9,83,71,50,29.98,29.90,7,3,11,0.00
2013-1-14,8,-2,-13,2,-8,-18,85,78,70,30.11,29.98,10,1,12,0.00
2013-1-15,14,0,-16,3,-7,-21,83,72,57,30.34,30.11,8,2,10,0.00
2013-1-16,28,13,-3,14,6,-8,91,72,55,30.42,30.32,7,2,13,0.04
2013-1-17,38,21,8,20,12,5,91,70,42,30.46,30.39,6,2,10,0.03
2013-1-18,40,25,13,18,13,8,85,62,39,30.40,30.32,6,2,9,0.01
2013-1-19,39,26,10,11,7,0,73,47,26,30.42,30.33,9,3,11,0.00
2013-1-20,42,26,15,10,4,0,58,40,21,30.37,30.29,9,3,11,0.00
2013-1-21,44,27,13,13,7,2,67,44,22,30.37,30.31,8,2,11,0.00
2013-1-22,50,30,14,7,2,-7,59,34,10,30.39,30.34,7,2,11,0.00
2013-1-23,50,34,16,14,3,-6,44,29,10,30.41,30.35,10,3,12,0.00
2013-1-24,49,38,31,29,19,7,84,48,30,30.36,30.31,12,2,13,0.00
2013-1-25,42,35,30,32,30,26,89,80,67,30.35,30.27,5,1,10,0.00
2013-1-26,38,34,33,35,32,30,96,91,85,30.27,29.96,5,0,6,0.50
2013-1-27,45,37,32,36,29,20,96,77,41,30.05,29.93,24,4,35,0.05
2013-1-28,32,28,18,30,24,15,94,86,71,29.96,29.86,15,5,27,0.05
2013-1-29,20,15,9,15,11,5,90,84,67,30.05,29.84,7,2,11,0.00
2013-1-30,26,18,7,21,12,3,87,79,61,30.21,30.05,14,5,19,0.00
2013-1-31,37,28,19,22,19,14,84,70,47,30.34,30.20,17,4,22,0.06
2013-2-1,42,30,19,20,15,11,75,55,34,30.36,30.27,11,4,20,0.05
2013-2-2,41,28,15,18,14,8,75,56,34,30.44,30.36,10,2,12,0.01
2013-2-3,42,30,20,27,16,5,94,60,24,30.36,30.17,11,2,17,0.00
2013-2-4,40,28,16,26,18,10,95,71,36,30.21,30.16,10,2,11,0.01
2013-2-5,48,32,17,20,14,8,71,50,26,30.22,30.09,11,4,14,0.00
2013-2-6,47,33,23,27,20,14,91,62,31,30.17,30.04,17,3,20,0.00
2013-2-7,41,30,21,26,18,10,93,66,28,30.25,30.12,9,2,14,0.03
2013-2-8,43,34,22,26,16,8,72,49,28,30.12,29.83,22,7,35,0.00
2013-2-9,33,25,19,23,20,14,91,82,47,29.85,29.72,9,3,18,0.03
2013-2-10,28,20,14,21,16,10,91,83,64,29.95,29.85,6,1,11,0.13
2013-2-11,28,19,14,20,15,11,91,84,61,30.09,29.93,10,1,12,0.00
2013-2-12,26,16,4,21,10,0,91,79,63,30.22,30.09,7,1,11,0.00
2013-2-13,34,21,4,21,13,1,91,74,54,30.23,30.18,7,2,13,0.02
2013-2-14,33,22,12,22,14,8,90,74,56,30.29,30.16,11,2,14,0.02
2013-2-15,32,22,8,18,10,4,91,63,44,30.41,30.29,11,4,16,0.02
2013-2-16,45,31,14,14,8,4,68,40,24,30.42,30.21,12,5,15,0.03
2013-2-17,48,36,26,23,4,-5,86,30,12,30.20,29.87,17,6,25,0.00
2013-2-18,34,21,5,23,8,-1,92,61,24,30.14,29.96,10,2,14,0.09
2013-2-19,43,27,9,7,1,-9,64,36,16,30.11,29.83,9,3,10,0.01
2013-2-20,33,28,22,25,18,6,91,69,42,29.83,29.72,13,2,17,0.01
2013-2-21,30,25,22,25,22,19,92,88,80,29.95,29.76,6,1,11,0.04
2013-2-22,24,19,10,21,16,6,92,88,83,30.10,29.94,8,2,13,0.00
2013-2-23,33,20,8,27,14,4,91,79,51,30.08,29.82,13,4,20,0.05
2013-2-24,22,16,5,15,11,1,90,82,72,30.08,29.86,9,2,15,0.01
2013-2-25,32,20,12,21,14,9,90,79,52,30.16,30.00,7,2,12,0.01
2013-2-26,25,19,12,19,14,9,90,82,76,30.18,29.92,11,3,17,0.00
2013-2-27,28,16,3,16,8,-1,91,72,46,30.30,30.17,12,2,13,0.00
2013-2-28,34,21,3,15,8,-3,79,57,37,30.40,30.28,13,3,13,0.03
2013-3-1,40,29,21,23,19,12,77,65,49,30.47,30.38,10,2,12,0.09
2013-3-2,53,35,20,24,20,15,83,57,26,30.47,30.27,6,3,11,0.02
2013-3-3,48,42,35,30,21,16,82,45,30,30.27,29.99,15,4,20,0.00
2013-3-4,43,32,17,34,26,11,94,79,54,30.24,29.97,15,4,27,0.20
2013-3-5,49,29,9,19,12,4,85,54,19,30.32,30.22,6,2,9,0.00
2013-3-6,56,41,28,19,15,8,60,37,15,30.22,30.08,14,4,20,0.00
2013-3-7,56,41,28,19,14,4,63,37,13,30.13,30.07,14,4,25,0.00
2013-3-8,47,36,26,31,21,12,94,59,29,30.09,29.86,12,4,22,0.00
2013-3-9,30,27,24,26,23,18,92,86,65,30.11,29.80,10,2,15,0.10
2013-3-10,37,26,15,22,17,12,93,70,44,30.29,30.12,10,2,15,0.16
2013-3-11,44,31,16,21,17,10,83,58,39,30.27,30.19,9,3,12,0.00
2013-3-12,50,38,28,27,23,19,78,58,39,30.37,30.23,10,2,16,0.00
2013-3-13,55,41,28,26,20,15,73,47,23,30.43,30.36,8,4,13,0.00
2013-3-14,61,46,33,22,18,15,53,34,18,30.46,30.38,12,5,16,0.00
2013-3-15,60,51,42,23,20,16,38,30,20,30.38,30.16,10,5,17,0.00
2013-3-16,47,40,34,37,29,21,94,66,37,30.16,30.04,11,4,22,0.04
2013-3-17,51,40,31,31,19,9,85,46,22,30.06,29.93,23,7,29,0.00
2013-3-18,45,34,25,13,10,6,57,37,22,30.15,30.04,21,6,28,0.00
2013-3-19,47,36,29,17,10,4,60,36,18,30.29,30.14,10,3,14,0.00
2013-3-20,44,37,28,30,14,3,71,43,20,30.29,30.03,25,4,25,0.00
2013-3-21,46,38,22,34,23,4,92,59,26,30.03,29.89,19,5,38,0.04
2013-3-22,46,33,21,15,9,4,58,39,20,30.02,29.80,21,6,35,0.00
2013-3-23,25,18,10,14,9,3,87,68,49,30.13,29.91,11,4,24,0.00
2013-3-24,30,19,8,10,3,-2,73,52,32,30.17,30.07,15,5,19,0.06
2013-3-25,40,25,7,9,5,-1,78,46,19,30.22,30.15,11,3,14,0.02
2013-3-26,54,41,30,20,14,9,57,36,19,30.21,30.09,22,6,27,0.00
2013-3-27,58,45,30,21,16,11,60,34,16,30.19,30.10,14,5,24,0.00
2013-3-28,58,47,39,22,17,13,42,31,17,30.25,30.18,14,5,20,0.00
2013-3-29,62,49,37,27,22,18,61,37,19,30.31,30.24,14,5,22,0.00
2013-3-30,58,46,32,33,27,22,74,50,31,30.31,30.22,14,5,22,0.00
2013-3-31,60,48,36,32,22,12,76,40,15,30.26,30.16,10,5,18,0.00
2013-4-1,60,48,35,35,24,12,92,44,17,30.19,30.03,21,7,31,0.02
2013-4-2,52,38,30,32,25,15,92,61,24,30.15,30.04,9,3,18,0.01
2013-4-3,55,40,29,35,27,20,94,67,28,30.29,30.15,13,3,19,0.01
2013-4-4,62,48,34,28,22,19,61,38,19,30.32,30.22,17,4,18,0.00
2013-4-5,60,49,41,31,24,16,58,38,25,30.23,30.06,17,6,26,0.00
2013-4-6,58,44,30,34,26,11,87,54,16,30.16,30.07,15,4,23,0.00
2013-4-7,58,44,33,35,27,20,91,57,26,30.13,29.94,14,4,23,0.01
2013-4-8,53,41,32,35,25,14,94,59,27,29.94,29.66,18,5,32,0.21
2013-4-9,34,27,16,30,25,13,94,90,75,30.02,29.66,12,4,17,0.07
2013-4-10,32,21,10,26,17,7,91,84,73,30.12,30.02,10,3,15,0.18
2013-4-11,43,33,22,34,27,17,92,79,67,30.11,30.03,9,2,13,0.10
2013-4-12,52,40,31,29,26,22,82,57,34,30.10,30.05,11,4,19,0.00
2013-4-13,55,47,34,27,19,13,55,35,20,30.10,29.72,28,11,41,0.00
2013-4-14,50,39,30,36,27,16,95,66,26,29.95,29.82,19,5,26,0.20
2013-4-15,52,40,28,34,28,23,94,68,36,29.89,29.76,26,9,36,0.00
2013-4-16,62,47,32,31,20,11,90,40,14,29.94,29.76,25,9,37,0.00
2013-4-17,31,24,16,29,22,12,95,90,83,30.12,29.85,15,4,19,0.00
2013-4-18,29,20,12,21,14,10,90,77,60,30.31,30.11,16,2,18,0.28
2013-4-19,44,31,16,23,16,10,78,56,36,30.31,30.16,13,4,21,0.10
2013-4-20,43,34,28,38,30,22,95,85,64,30.22,30.11,9,3,14,0.12
2013-4-21,57,42,28,33,23,11,94,56,16,30.26,30.17,13,4,21,0.09
2013-4-22,61,49,40,30,24,16,65,40,18,30.19,30.01,18,6,33,0.00
2013-4-23,41,32,27,29,24,14,93,75,46,30.22,30.09,13,4,17,0.21
2013-4-24,52,37,26,20,14,9,63,42,23,30.27,30.16,14,4,18,0.00
2013-4-25,61,46,29,25,19,14,67,37,18,30.24,30.09,17,4,29,0.00
2013-4-26,62,49,34,25,18,11,56,33,15,30.36,30.18,12,5,22,0.00
2013-4-27,64,51,37,23,16,10,44,27,12,30.38,30.28,12,5,18,0.00
2013-4-28,69,55,42,27,19,15,37,25,15,30.30,30.16,13,5,18,0.00
2013-4-29,71,57,41,28,21,12,47,27,11,30.18,30.02,17,5,23,0.00
2013-4-30,71,61,49,24,18,10,35,20,10,30.03,29.95,23,7,43,0.00
2013-5-1,51,38,29,36,25,8,94,64,23,30.42,30.01,20,7,24,0.04
2013-5-2,48,34,17,16,13,8,86,46,23,30.52,30.42,15,4,18,0.00
2013-5-3,61,44,25,15,10,2,59,30,10,30.45,30.16,16,4,18,0.00
2013-5-4,65,52,37,19,13,9,34,23,12,30.16,30.09,19,5,22,0.00
2013-5-5,61,53,47,29,20,13,44,28,20,30.19,30.12,21,6,25,0.00
2013-5-6,56,45,36,42,34,28,94,68,38,30.20,30.12,12,4,21,0.12
2013-5-7,52,43,34,41,36,30,95,80,45,30.20,30.13,15,4,17,0.02
2013-5-8,47,38,34,38,35,31,95,88,71,30.21,30.12,16,3,20,0.16
2013-5-9,56,43,35,41,37,33,95,81,48,30.29,30.18,9,3,15,0.07
2013-5-10,60,47,33,37,32,27,85,59,30,30.39,30.27,17,5,24,0.00
2013-5-11,66,53,40,30,26,19,59,39,20,30.45,30.39,16,5,20,0.00
2013-5-12,69,57,45,35,30,26,61,38,21,30.45,30.36,16,5,19,0.00
2013-5-13,77,61,51,37,32,29,47,35,19,30.43,30.33,27,7,29,0.00
2013-5-14,78,62,53,38,32,21,51,34,12,30.33,30.20,16,5,26,0.00
2013-5-15,72,59,50,47,36,17,62,42,25,30.23,30.11,15,5,24,0.04
2013-5-16,74,61,46,28,24,17,38,25,16,30.19,30.11,15,6,22,0.00
2013-5-17,74,59,45,24,17,6,39,22,8,30.19,30.10,34,6,39,0.00
2013-5-18,66,52,41,34,26,18,74,39,18,30.18,30.09,19,7,43,0.01
2013-5-19,54,44,37,34,30,24,77,61,33,30.15,30.10,13,5,23,0.00
2013-5-20,59,45,30,35,30,25,88,59,32,30.24,30.12,16,4,26,0.00
2013-5-21,66,50,33,35,30,22,88,51,19,30.25,30.13,10,4,21,0.00
2013-5-22,75,62,46,29,22,14,49,25,10,30.14,30.05,18,6,27,0.00
2013-5-23,76,64,46,23,17,9,34,18,8,30.16,30.08,21,8,38,0.00
2013-5-24,76,62,42,24,14,8,47,17,8,30.25,30.16,17,6,23,0.00
2013-5-25,77,62,44,20,14,6,34,18,7,30.25,30.17,19,6,25,0.00
2013-5-26,76,62,47,22,16,7,32,18,8,30.23,30.14,20,6,27,0.00
2013-5-27,73,60,47,21,14,10,26,17,10,30.19,30.07,22,7,27,0.00
2013-5-28,70,58,49,36,20,13,61,24,14,30.10,29.93,15,6,28,0.00
2013-5-29,61,49,39,41,32,20,93,57,23,30.06,29.96,17,6,24,0.09
2013-5-30,66,54,44,31,24,14,58,34,14,30.17,30.05,30,8,34,0.00
2013-5-31,63,52,42,28,19,4,47,29,15,30.29,30.15,14,5,24,0.00
2013-6-1,69,52,31,21,14,5,48,24,9,30.35,30.28,12,4,18,0.00
2013-6-2,80,63,42,26,18,11,31,19,8,30.31,30.15,15,5,25,0.00
2013-6-3,75,66,57,34,26,21,30,22,14,30.21,30.13,21,7,31,0.00
2013-6-4,79,66,52,35,28,23,41,26,15,30.25,30.18,16,5,25,0.00
2013-6-5,76,64,51,33,27,19,43,26,16,30.27,30.21,17,5,22,0.00
2013-6-6,78,64,52,31,26,22,37,24,13,30.28,30.21,17,6,20,0.00
2013-6-7,76,64,55,35,30,25,36,28,16,30.27,30.18,13,5,27,0.00
2013-6-8,82,68,53,38,32,27,43,28,15,30.25,30.17,15,5,23,0.00
2013-6-9,86,68,49,33,27,18,45,24,8,30.32,30.24,10,4,16,0.00
2013-6-10,89,76,64,29,23,17,24,15,8,30.28,30.19,19,8,28,0.00
2013-6-11,82,70,57,22,18,12,23,14,9,30.33,30.24,30,9,35,0.00
2013-6-12,86,72,60,26,19,8,21,14,6,30.35,30.29,26,8,31,0.00
2013-6-13,86,73,61,40,26,20,45,19,10,30.33,30.23,24,8,44,0.00
2013-6-14,82,70,55,36,23,8,39,20,6,30.27,30.20,21,7,32,0.00
2013-6-15,78,67,51,31,22,7,31,18,12,30.33,30.22,21,7,25,0.00
2013-6-16,76,64,53,48,35,28,67,35,19,30.35,30.28,16,5,28,0.02
2013-6-17,79,66,53,40,27,17,36,24,10,30.32,30.24,20,5,24,0.02
2013-6-18,83,71,56,30,18,-5,25,14,4,30.27,30.15,21,7,28,0.00
2013-6-19,82,69,51,23,6,-8,25,10,3,30.17,30.08,30,7,37,0.00
2013-6-20,82,69,49,22,14,7,31,13,7,30.20,30.14,21,6,27,0.00
2013-6-21,82,68,52,23,17,12,25,15,8,30.24,30.16,22,8,28,0.00
2013-6-22,79,67,53,22,16,11,24,15,8,30.22,30.16,19,8,29,0.00
2013-6-23,80,66,46,25,17,10,35,16,8,30.21,30.11,13,5,27,0.00
2013-6-24,78,67,57,19,14,3,21,13,6,30.20,30.14,15,6,32,0.00
2013-6-25,81,69,57,31,24,14,30,18,14,30.32,30.20,22,8,24,0.00
2013-6-26,89,74,59,33,30,27,33,21,11,30.41,30.31,16,5,19,0.00
2013-6-27,90,74,63,37,32,28,31,22,11,30.47,30.40,31,6,35,0.00
2013-6-28,92,78,59,38,31,19,35,20,7,30.47,30.36,14,5,22,0.00
2013-6-29,88,74,64,54,38,33,53,28,17,30.42,30.30,15,5,21,0.01
2013-6-30,86,74,61,43,38,34,42,29,16,30.39,30.29,14,5,28,0.00
2013-7-1,86,71,53,41,36,30,57,30,14,30.41,30.32,13,4,22,0.00
2013-7-2,84,70,57,45,35,27,63,30,15,30.40,30.28,13,5,28,0.02
2013-7-3,85,71,58,39,33,28,42,27,13,30.33,30.23,23,5,31,0.00
2013-7-4,85,72,58,40,36,33,44,29,16,30.30,30.20,10,4,18,0.00
2013-7-5,85,73,63,59,43,35,61,36,21,30.25,30.16,14,5,20,0.02
2013-7-6,81,70,61,46,44,39,57,40,25,30.32,30.22,14,4,17,0.00
2013-7-7,85,71,58,55,46,41,82,44,21,30.38,30.24,11,4,19,0.04
2013-7-8,86,70,55,49,42,32,71,43,14,30.40,30.34,16,4,22,0.00
2013-7-9,89,75,62,41,34,25,42,25,11,30.45,30.37,13,5,17,0.00
2013-7-10,87,77,67,44,37,33,37,25,15,30.41,30.28,16,5,22,0.00
2013-7-11,85,68,56,58,47,37,90,51,24,30.35,30.28,15,5,28,0.19
2013-7-12,78,64,53,59,53,50,92,71,41,30.37,30.28,19,4,25,0.19
2013-7-13,77,66,54,62,54,49,89,68,40,30.39,30.32,12,3,19,0.05
2013-7-14,82,70,60,53,48,39,73,49,23,30.40,30.29,12,4,21,0.00
2013-7-15,83,66,53,55,49,45,91,58,29,30.34,30.23,14,4,25,0.15
2013-7-16,80,63,54,56,53,49,90,71,39,30.39,30.28,30,4,30,0.05
2013-7-17,83,67,57,56,53,50,91,64,35,30.44,30.36,18,4,20,0.64
2013-7-18,80,64,55,57,53,48,94,70,37,30.46,30.35,22,4,34,0.01
2013-7-19,78,64,54,55,51,48,87,63,38,30.43,30.31,16,5,25,0.00
2013-7-20,85,71,56,50,43,27,73,41,12,30.33,30.22,16,5,19,0.00
2013-7-21,86,73,61,47,39,27,52,31,12,30.30,30.23,13,5,17,0.00
2013-7-22,88,74,60,44,35,17,49,27,8,30.34,30.27,12,5,21,0.00
2013-7-23,87,73,63,44,37,23,41,28,10,30.39,30.30,22,6,32,0.00
2013-7-24,79,68,57,54,45,38,89,45,29,30.43,30.32,11,3,21,0.03
2013-7-25,83,71,59,52,45,32,66,41,17,30.39,30.33,13,5,22,0.01
2013-7-26,85,71,55,54,41,32,64,35,17,30.44,30.36,12,4,19,0.02
2013-7-27,81,66,56,54,47,38,92,53,29,30.40,30.25,20,6,29,0.21
2013-7-28,61,56,54,58,54,50,96,91,77,30.30,30.23,13,3,16,0.43
2013-7-29,72,58,52,56,51,47,97,80,45,30.45,30.27,13,4,23,0.26
2013-7-30,79,65,50,52,45,35,89,52,21,30.49,30.42,11,4,29,0.05
2013-7-31,84,71,60,45,38,33,46,32,16,30.50,30.39,13,4,16,0.00
2013-8-1,66,61,56,58,50,37,95,70,36,30.46,30.34,13,4,19,0.15
2013-8-2,78,64,51,56,52,48,96,69,41,30.41,30.31,14,4,23,0.61
2013-8-3,77,62,57,57,52,46,91,70,42,30.43,30.34,12,4,17,0.14
2013-8-4,78,64,56,54,47,42,79,56,32,30.42,30.38,14,4,23,0.02
2013-8-5,76,65,55,56,50,45,84,59,36,30.41,30.32,11,4,18,0.00
2013-8-6,77,61,54,54,49,45,94,68,38,30.39,30.30,14,5,20,1.16
2013-8-7,66,56,51,52,49,47,93,78,54,30.36,30.28,14,4,21,0.15
2013-8-8,69,58,52,51,47,43,85,68,40,30.37,30.28,18,4,26,0.01
2013-8-9,72,60,47,50,43,40,79,57,37,30.39,30.33,14,5,21,0.12
2013-8-10,75,58,48,49,42,37,91,59,25,30.52,30.38,17,7,32,0.26
2013-8-11,75,60,44,47,42,38,87,55,28,30.44,30.35,13,5,17,0.00
2013-8-12,71,61,53,55,45,39,79,56,36,30.41,30.35,18,5,24,0.09
2013-8-13,78,64,47,47,41,32,83,47,19,30.43,30.37,12,4,20,0.00
2013-8-14,80,66,58,46,35,26,45,34,15,30.42,30.35,17,5,28,0.02
2013-8-15,82,69,60,37,33,30,36,27,16,30.42,30.37,15,5,18,0.00
2013-8-16,85,71,58,38,30,20,36,23,10,30.43,30.36,15,4,18,0.00
2013-8-17,83,70,57,47,38,30,50,32,16,30.42,30.36,24,6,30,0.00
2013-8-18,80,64,57,54,46,42,89,52,29,30.43,30.36,15,5,24,0.23
2013-8-19,83,67,55,50,45,43,67,47,25,30.42,30.32,21,6,32,0.00
2013-8-20,81,66,54,54,46,42,79,52,28,30.39,30.33,11,4,20,0.02
2013-8-21,80,65,52,50,46,42,81,52,29,30.41,30.35,12,4,20,0.01
2013-8-22,80,65,53,56,50,45,90,62,34,30.43,30.34,11,4,22,0.24
2013-8-23,79,66,55,54,48,43,80,55,29,30.35,30.25,12,4,20,0.01
2013-8-24,72,61,54,52,48,44,92,62,40,30.39,30.32,12,3,19,0.08
2013-8-25,64,58,53,57,54,51,95,86,72,30.44,30.38,10,2,12,0.04
2013-8-26,74,61,54,59,55,52,96,82,51,30.48,30.40,11,3,18,0.15
2013-8-27,76,62,50,58,53,48,96,75,45,30.41,30.34,17,3,22,0.26
2013-8-28,82,64,52,56,52,46,93,70,32,30.41,30.34,17,3,31,0.09
2013-8-29,80,65,56,53,50,46,77,60,32,30.45,30.40,18,5,28,0.04
2013-8-30,79,65,58,56,51,48,86,62,33,30.44,30.38,13,3,26,0.07
2013-8-31,82,65,52,57,50,46,81,61,31,30.39,30.31,9,4,21,0.06
2013-9-1,79,63,51,61,50,46,92,65,37,30.36,30.31,9,4,20,0.12
2013-9-2,81,68,58,52,49,44,75,52,29,30.42,30.33,16,5,25,0.01
2013-9-3,83,68,59,52,47,42,63,49,26,30.42,30.36,12,4,22,0.00
2013-9-4,84,68,60,58,49,47,83,55,28,30.46,30.40,11,4,19,0.06
2013-9-5,85,70,57,55,49,44,89,52,24,30.46,30.38,15,4,23,0.61
2013-9-6,84,68,58,52,44,37,80,46,21,30.45,30.33,16,4,38,0.09
2013-9-7,84,68,59,49,44,40,63,43,23,30.38,30.31,16,5,26,0.01
2013-9-8,77,64,53,57,50,45,92,63,32,30.36,30.24,14,3,20,0.13
2013-9-9,67,55,51,57,52,49,96,90,61,30.27,30.21,9,3,23,0.76
2013-9-10,62,54,50,57,53,50,97,95,79,30.30,30.22,8,1,10,0.09
2013-9-11,66,57,51,57,53,50,97,87,64,30.36,30.30,10,2,15,0.05
2013-9-12,68,56,46,54,49,44,95,79,53,30.37,30.29,13,2,17,0.24
2013-9-13,70,58,45,54,48,43,96,72,44,30.34,30.18,9,3,18,0.32
2013-9-14,64,54,48,52,47,42,95,78,52,30.28,30.19,11,3,21,0.36
2013-9-15,65,55,49,50,46,43,93,73,52,30.34,30.23,12,3,18,0.01
2013-9-16,71,57,49,52,46,42,80,68,45,30.38,30.32,13,3,18,0.11
2013-9-17,74,61,52,47,43,41,74,54,32,30.34,30.16,16,4,21,0.00
2013-9-18,72,59,48,49,45,40,91,63,36,30.22,30.17,16,5,30,0.36
2013-9-19,67,55,46,49,43,37,94,68,39,30.31,30.18,11,3,18,0.00
2013-9-20,72,56,42,39,36,32,75,50,25,30.32,30.26,10,2,13,0.00
2013-9-21,72,62,53,44,38,34,68,42,28,30.29,30.14,16,5,23,0.00
2013-9-22,61,50,37,52,44,35,94,81,54,30.13,29.97,16,4,23,0.95
2013-9-23,58,46,38,42,36,30,93,71,44,30.33,30.03,14,4,18,0.02
2013-9-24,68,52,36,40,30,20,71,47,19,30.34,30.18,8,3,12,0.00
2013-9-25,70,60,45,33,27,21,55,30,18,30.17,29.91,31,9,39,0.00
2013-9-26,69,61,54,31,22,17,36,24,15,30.00,29.95,30,9,39,0.00
2013-9-27,57,43,30,40,32,24,93,68,35,30.27,29.95,18,5,32,0.13
2013-9-28,56,40,26,32,27,21,87,63,38,30.37,30.27,10,2,13,0.00
2013-9-29,66,50,36,31,23,16,74,38,18,30.37,30.27,15,5,23,0.00
2013-9-30,71,56,42,33,27,19,50,33,19,30.29,30.20,11,4,21,0.00
2013-10-1,72,58,44,33,28,23,53,34,18,30.26,30.19,10,3,14,0.00
2013-10-2,71,56,42,31,22,16,57,28,17,30.24,30.13,12,4,26,0.00
2013-10-3,66,52,31,32,26,19,93,39,18,30.14,29.96,23,6,33,0.00
2013-10-4,37,30,19,30,26,16,94,86,67,30.36,30.11,7,1,14,0.42
2013-10-5,44,32,22,29,25,19,94,78,48,30.46,30.36,13,2,17,0.06
2013-10-6,56,38,23,30,24,19,89,61,30,30.47,30.41,11,2,11,0.01
2013-10-7,66,49,33,36,29,23,71,49,23,30.41,30.24,9,3,13,0.00
2013-10-8,65,54,43,31,26,18,54,36,24,30.24,30.06,25,6,29,0.00
2013-10-9,62,52,44,37,24,18,74,35,19,30.11,30.04,16,6,35,0.00
2013-10-10,47,38,33,39,34,27,95,85,63,30.07,29.94,18,5,28,0.81
2013-10-11,45,38,35,36,32,28,89,78,64,30.24,30.04,17,4,21,0.02
2013-10-12,55,42,31,32,27,23,78,58,32,30.27,30.19,13,4,18,0.00
2013-10-13,61,48,31,39,31,25,81,54,28,30.22,30.09,26,5,33,0.00
2013-10-14,50,39,30,34,30,25,90,71,39,30.26,30.09,18,5,26,0.02
2013-10-15,44,34,28,32,29,24,95,83,56,30.25,30.18,12,2,18,0.00
2013-10-16,41,32,28,32,28,23,95,86,61,30.27,30.20,7,1,11,0.27
2013-10-17,50,37,27,25,21,16,84,57,27,30.26,30.15,12,4,17,0.01
2013-10-18,44,35,29,24,19,11,80,53,31,30.32,30.15,12,3,18,0.00
2013-10-19,51,38,25,25,18,10,71,47,28,30.32,30.24,9,3,13,0.00
2013-10-20,52,41,33,27,21,17,60,45,29,30.24,30.14,13,4,16,0.00
2013-10-21,52,39,28,28,20,8,84,50,18,30.35,30.19,10,2,13,0.00
2013-10-22,55,41,29,27,22,15,66,48,31,30.38,30.33,11,3,14,0.00
2013-10-23,60,46,34,28,24,19,67,45,26,30.34,30.28,11,4,13,0.00
2013-10-24,62,50,34,29,25,20,65,41,22,30.34,30.28,10,3,15,0.00
2013-10-25,56,44,36,38,33,27,86,66,45,30.36,30.31,15,4,22,0.00
2013-10-26,57,45,33,36,32,28,90,63,35,30.43,30.36,9,3,16,0.00
2013-10-27,59,46,36,31,28,25,72,51,30,30.37,30.05,10,3,16,0.00
2013-10-28,56,50,40,29,21,12,57,34,22,30.05,29.98,20,8,35,0.00
2013-10-29,50,42,30,33,23,11,94,54,22,30.07,30.00,18,5,31,0.02
2013-10-30,37,29,21,31,26,19,93,87,67,30.11,30.05,7,2,13,0.33
2013-10-31,35,30,26,27,24,22,92,79,61,30.23,30.12,9,3,12,0.08
2013-11-1,43,35,30,29,26,19,83,68,47,30.38,30.22,9,3,12,0.00
2013-11-2,56,38,26,29,22,17,75,56,30,30.38,30.13,9,2,10,0.00
2013-11-3,54,43,31,28,21,14,82,45,28,30.12,29.90,30,6,37,0.00
2013-11-4,41,30,21,26,22,17,90,73,49,30.08,29.99,7,1,13,0.00
2013-11-5,28,22,15,22,18,10,93,84,68,30.33,30.05,8,3,10,0.06
2013-11-6,41,26,9,21,14,4,88,65,33,30.48,30.33,7,2,10,0.04
2013-11-7,50,36,22,26,22,17,80,60,36,30.49,30.28,6,2,13,0.01
2013-11-8,56,44,35,22,18,14,56,37,21,30.28,30.20,13,5,22,0.00
2013-11-9,56,43,35,24,20,17,59,42,24,30.35,30.26,9,3,11,0.00
2013-11-10,57,44,36,24,19,16,52,38,24,30.40,30.35,9,4,15,0.00
2013-11-11,55,44,33,21,18,15,52,37,22,30.50,30.39,13,4,14,0.00
2013-11-12,57,43,29,24,20,17,63,41,25,30.57,30.50,9,3,12,0.00
2013-11-13,55,44,36,24,21,17,59,42,27,30.50,30.25,11,4,14,0.00
2013-11-14,47,38,31,28,24,9,78,58,30,30.26,30.01,12,3,15,0.00
2013-11-15,50,39,31,32,22,3,94,56,22,30.03,29.82,15,4,26,0.05
2013-11-16,39,34,29,31,28,26,95,81,60,29.91,29.77,40,8,44,0.18
2013-11-17,46,38,30,28,25,22,80,63,40,30.28,29.91,11,4,24,0.06
2013-11-18,47,36,26,23,19,14,76,53,33,30.34,30.23,11,3,13,0.00
2013-11-19,50,39,30,30,24,17,66,54,39,30.22,30.05,10,3,14,0.00
2013-11-20,48,37,31,33,29,26,95,75,47,30.09,29.99,8,1,11,0.04
2013-11-21,40,35,31,37,33,30,95,92,82,30.24,30.03,6,1,10,0.28
2013-11-22,30,28,26,29,26,24,96,94,91,30.29,30.24,7,1,9,0.01
2013-11-23,37,31,27,35,30,26,96,95,90,30.30,30.20,4,0,6,0.06
2013-11-24,32,30,26,31,29,25,97,96,94,30.22,30.12,5,0,6,0.01
2013-11-25,33,26,18,30,24,16,96,93,87,30.37,30.14,8,1,9,0.00
2013-11-26,34,25,14,31,22,12,96,90,83,30.43,30.37,5,2,8,0.04
2013-11-27,38,28,19,32,24,16,94,86,70,30.38,30.24,6,1,7,0.05
2013-11-28,42,29,19,31,25,17,95,84,64,30.30,30.22,6,1,8,0.01
2013-11-29,43,30,21,27,22,18,93,76,48,30.37,30.29,8,2,11,0.01
2013-11-30,43,30,21,29,23,17,94,76,47,30.37,30.31,8,2,11,0.00
2013-12-1,35,28,20,29,23,18,94,84,62,30.39,30.27,10,2,15,0.01
2013-12-2,46,36,24,27,23,19,92,62,38,30.28,29.94,14,3,22,0.00
2013-12-3,47,41,32,28,21,17,67,46,34,29.94,29.64,25,9,36,0.00
2013-12-4,39,18,-2,28,13,-6,91,82,57,29.96,29.60,24,5,40,0.00
2013-12-5,18,5,-8,13,1,-14,88,82,71,29.96,29.87,6,1,10,0.10
2013-12-6,18,6,-5,12,2,-9,86,80,73,30.07,29.93,7,2,9,0.00
2013-12-7,23,16,5,17,11,2,90,82,66,30.05,29.76,13,2,22,0.00
2013-12-8,20,12,0,16,5,-6,88,75,50,30.00,29.72,21,5,26,0.00
2013-12-9,12,3,-6,5,-3,-11,85,76,62,30.36,30.00,7,3,11,0.00
2013-12-10,28,11,-6,12,2,-11,85,69,44,30.35,30.22,8,2,11,0.00
2013-12-11,36,19,4,18,9,0,87,67,38,30.46,30.28,6,2,8,0.01
2013-12-12,40,24,9,19,11,4,85,60,34,30.45,30.19,7,2,9,0.02
2013-12-13,38,24,12,18,12,6,83,63,39,30.26,30.09,9,2,13,0.02
2013-12-14,29,17,6,15,10,2,90,74,52,30.44,30.26,8,2,9,0.00
2013-12-15,40,27,10,20,15,6,87,62,42,30.45,30.40,10,2,14,0.00
2013-12-16,46,32,20,20,17,13,74,55,32,30.47,30.41,8,2,10,0.00
2013-12-17,46,32,19,21,16,12,75,56,31,30.49,30.35,6,2,9,0.00
2013-12-18,49,39,29,23,16,9,61,41,20,30.34,29.99,10,2,14,0.00
2013-12-19,45,37,29,27,20,15,86,54,31,29.99,29.84,14,3,21,0.00
2013-12-20,33,28,23,29,25,21,94,88,69,29.89,29.84,9,2,11,0.06
2013-12-21,27,22,18,23,19,15,92,89,81,30.01,29.77,8,1,12,0.01
2013-12-22,28,20,10,17,14,6,90,75,57,30.31,30.01,7,2,11,0.02
2013-12-23,34,25,18,16,14,11,83,65,44,30.44,30.30,8,2,12,0.00
2013-12-24,44,28,13,25,19,10,88,71,46,30.39,30.27,16,4,22,0.01
2013-12-25,35,20,8,12,5,-1,88,57,22,30.45,30.39,8,2,12,0.01
2013-12-26,40,25,11,12,7,2,69,49,29,30.43,30.36,8,2,10,0.00
2013-12-27,42,29,16,18,15,11,82,59,35,30.42,30.27,6,2,8,0.00
2013-12-28,42,30,20,22,18,14,80,61,42,30.27,30.08,8,3,12,0.00
2013-12-29,27,20,12,20,14,7,89,79,66,30.26,30.12,8,2,14,0.00
2013-12-30,35,24,12,12,8,3,86,53,29,30.34,30.22,9,3,13,0.00
2013-12-31,44,33,26,28,19,11,85,56,42,30.33,30.21,9,3,13,0.00
2014-1-1,38,30,22,27,15,3,83,55,26,30.36,30.20,17,4,22,0.00
2014-1-2,46,32,16,8,0,-12,50,28,9,30.38,30.26,10,4,15,0.00